Home   Weather   Porto   Past weeks

Flag for Portugal Past Weather in Porto, Portugal — Yesterday and Last 2 Weeks

Now
81 °F

Passing clouds.


Feels Like: 81 °F
Forecast: 56 / 73 °F
Wind: 12 mph from East

Location: Porto / Pedras Rubras

Current Time: Sep 28, 2016 at 12:58:57 PM

Latest Report: Sep 28, 2016 at 12:00 PM


Visibility: N/A

Pressure: 30.24 "Hg

Humidity: 48%

Dew Point: 59 °F

Location of PortoLocation

Past Weather in Porto — Graph

°F

Porto Temperature Yesterday

Maximum temperature yesterday: 75 °F (at 11:30 AM)
Minimum temperature yesterday: 55 °F (at 7:30 AM)
Average temperature yesterday: 66 °F

High & Low Weather Summary for the Past Weeks

 TemperatureHumidityPressure
High79 °F (Sep 18, 12:30 PM)100% (Sep 14, 1:30 AM)30.33 "Hg (Sep 14, 1:30 AM)
Low50 °F (Sep 20, 6:30 AM)37% (Sep 18, 12:30 PM)29.95 "Hg (Sep 13, 11:00 AM)
Average62 °F86%30.13 "Hg
* Reported Sep 13 11:00 AM — Sep 28 11:30 AM, Porto, Weather by CustomWeather, © 2016

Note: Actual official high and low records may vary slightly from our data, if they occured in-between our weather recording intervals... More about our weather records

Advertising

Porto Weather History for the Previous 24 Hours

Scroll right to see more
 ConditionsComfort  
Time TempWeatherWind HumidityBarometerVisibility
11:30 AM
Wed, Sep 28
79 °FSunny.12 mph48%30.24 "Hg10 mi
11:00 AM79 °FPassing clouds.10 mph51%30.27 "HgN/A
10:30 AM75 °FSunny.12 mph54%30.27 "Hg10 mi
10:00 AM75 °FPassing clouds.12 mph54%30.27 "HgN/A
9:30 AM73 °FPassing clouds.12 mph57%30.24 "HgN/A
9:00 AM72 °FPassing clouds.8 mph61%30.24 "HgN/A
8:30 AM72 °FPassing clouds.7 mph61%30.24 "HgN/A
8:00 AM70 °FSunny.10 mph60%30.24 "Hg10 mi
7:30 AM68 °FPassing clouds.7 mph69%30.24 "HgN/A
7:00 AM68 °FPassing clouds.8 mph69%30.24 "HgN/A
6:30 AM63 °FClear.7 mph83%30.21 "Hg10 mi
6:00 AM64 °FClear.8 mph83%30.24 "Hg10 mi
5:30 AM64 °FClear.5 mph88%30.24 "Hg10 mi
5:00 AM61 °FClear.6 mph94%30.24 "Hg10 mi
4:30 AM59 °FPassing clouds.5 mph100%30.24 "HgN/A
4:00 AM59 °FPassing clouds.3 mph100%30.24 "HgN/A
3:30 AM63 °FClear.5 mph88%30.24 "Hg10 mi
3:00 AM59 °FClear.2 mph100%30.24 "Hg10 mi
2:30 AM61 °FClear.2 mph100%30.24 "Hg10 mi
2:00 AM61 °FClear.2 mph100%30.24 "Hg10 mi
1:00 AM61 °FClear.1 mph100%30.24 "Hg10 mi
12:30 AM63 °FClear.No wind94%30.24 "Hg10 mi
12:00 AM63 °FClear.6 mph94%30.24 "Hg10 mi
11:30 PM
Tue, Sep 27
63 °FClear.6 mph100%30.24 "Hg10 mi
11:00 PM64 °FClear.1 mph88%30.24 "Hg10 mi
10:30 PM66 °FClear.6 mph88%30.27 "Hg10 mi
10:00 PM66 °FClear.5 mph88%30.27 "Hg10 mi
9:30 PM66 °FClear.8 mph88%30.24 "Hg10 mi
9:00 PM66 °FClear.9 mph88%30.24 "Hg10 mi
8:30 PM66 °FClear.12 mph88%30.24 "Hg10 mi
8:00 PM66 °FClear.14 mph88%30.24 "Hg10 mi
7:30 PM68 °FClear.12 mph83%30.24 "Hg10 mi
7:00 PM68 °FSunny.14 mph83%30.24 "Hg10 mi
6:30 PM72 °FPassing clouds.14 mph73%30.24 "HgN/A
6:00 PM70 °FSunny.14 mph78%30.24 "Hg10 mi
5:30 PM72 °FSunny.17 mph73%30.24 "Hg10 mi
5:00 PM73 °FSunny.15 mph69%30.24 "Hg10 mi
4:30 PM73 °FSunny.16 mph69%30.27 "Hg10 mi
4:00 PM73 °FSunny.17 mph69%30.27 "Hg10 mi
3:30 PM75 °FPassing clouds.13 mph65%30.27 "HgN/A
3:00 PM75 °FPassing clouds.13 mph69%30.27 "HgN/A
2:30 PM75 °FSunny.13 mph65%30.27 "Hg10 mi
2:00 PM75 °FSunny.16 mph65%30.27 "Hg10 mi
1:30 PM75 °FSunny.14 mph65%30.30 "Hg10 mi
1:00 PM75 °FSunny.12 mph65%30.30 "Hg10 mi
12:30 PM75 °FPassing clouds.8 mph65%30.30 "HgN/A
12:00 PM75 °FPassing clouds.9 mph65%30.33 "HgN/A
Weather by CustomWeather, © 2016

See weather overviewHow to use our weather pages